SCP
0 0 0 0 0 0 0 0 0 0 0 0 0 0 0 0 0 0 0 0 0 0 0 0 0 0 0 0 0 0 0 0 0 0 -0 0 0 0 0 0 0 0 0 0
0 0 0 0 0 0 0 0 0 0 0 0 0 0 0 0 0 0 0 0 0 0 0 0 0 0 0 0 0 0 0 0 0 0 0 0 0 0 0 0 0 0 0 0
0 0 0 0 0 0 0 0 0 0 0 0 0 0 0 0 0 0 0 0 0 0 0 0 0 0 0 0 0 0 0 0 0 0 0 0 0 0 0 0 0 0 0 0
0 0 0 0 0 0 0 0 0 0 0 0 0 0 0 0 0 0 0 0 0 0 0 0 0 0 0 0 0 0 0 0 0 0 0 0 0 0 0 0 0 0 0 0
0 0 0 0 0 0 0 0 0 0 0 0 0 0 0 0 0 0 0 0 0 0 0 0 0 0 0 0 0 0 0 0 0 0 0 0 0 0 0 0 0 0 0 0
0 0 0 0 0 0 0 0 0 0 0 0 0 0 0 0 0 0 0 0 0 0 0 0 0 0 0 0 0 0 0 0 0 0 0 0 0 0 0 0 0 0 0 0
0 0 0 0 0 0 0 0 0 0 0 0 0 0 0 0 0 0 0 0 0 0 0 0 0 0 0 0 0 0 0 0 0 0 0 0 0 0 0 0 0 0 0 0
0 0 0 0 0 0 0 0 0 0 0 0 0 0 0 0 0 0 0 0 0 0 0 0 0 0 0 0 0 0 0 0 0 0 0 0 0 0 0 0 0 0 0 0
0 0 0 0 0 0 0 0 0 0 0 0 0 0 0 0 0 0 0 0 0 0 0 0 0 0 0 0 0 0 0 0 0 0 0 0 0 0 0 0 0 0 0 0
0 0 0 0 0 0 0 0 0 0 0 0 0 0 0 0 0 0 0 0 0 0 0 0 0 0 0 0 0 0 0 0 0 0 0 0 0 0 0 0 0 0 0 0
0 0 0 0 0 0 0 0 0 0 0 0 0 0 0 0 0 0 0 0 0 0 0 0 0 0 0 0 0 0 0 0 0 0 0 0 0 0 0 0 0 0 0 0
0 0 0 0 0 0 0 0 0 0 0 0 0 0 0 0 0 0 0 0 0 0 0 0 0 0 0 0 0 0 0 0 0 0 0 0 0 0 0 0 0 0 0 0
0 0 0 0 0 0 0 0 0 0 0 0 0 0 0 0 0 0 0 0 0 0 0 0 0 0 0 0 0 0 0 0 0 0 0 0 0 0 0 0 0 0 0 0
0 0 0 0 0 0 0 0 0 0 0 0 0 0 0 0 0 0 0 0 0 0 0 0 0 0 0 0 0 0 0 0 0 0 0 0 0 0 0 0 0 0 0 0
0 0 0 0 0 0 0 0 0 0 0 0 0 0 0 0 0 0 0 0 0 0 0 0 0 0 0 0 0 0 0 0 0 0 0 0 0 0 0 0 0 0 0 -0
0 0 0 0 0 0 0 0 0 0 0 0 0 0 0 0 0 0 0 0 0 0 0 0 0 0 0 0 0 0 0 0 0 0 0 0 0 0 0 0 0 0 0 -0
0 0 0 0 0 0 0 0 0 0 0 0 0 0 0 0 0 0 0 0 0 0 0 0 0 0 0 0 0 0 0 0 0 0 0 0 0 0 0 0 0 0 0 0
0 0 0 0 0 0 0 0 -0 0 0 0 0 0 0 0 0 0 0 0 0 0 0 0 0 0 0 0 -0 0 0 0 0 0 0 0 0 0 0 0 0 0 0 0
0 0 0 0 0 0 0 0 0 0 0 0 0 0 0 0 0 0 0 0 0 0 0 0 0 0 0 0 0 0 0 0 0 0 0 0 0 0 0 0 0 0 0 0
0 0 0 0 0 0 0 0 0 0 0 0 0 0 0 0 0 0 0 0 0 0 0 0 0 0 0 0 0 0 0 0 0 0 0 0 0 0 0 0 0 0 0 0
0 0 0 0 0 0 0 0 0 0 0 0 0 0 0 0 0 0 0 0 0 0 0 0 0 0 0 0 0 0 0 0 0 0 0 0 0 0 0 0 0 0 0 0
0 0 0 0 0 0 0 0 0 0 -0 0 0 0 0 0 0 0 0 0 0 0 0 0 0 0 0 0 0 0 0 0 0 0 0 0 0 0 0 0 0 0 0 0
0 0 0 0 0 0 0 0 0 0 0 0 0 0 0 0 0 0 0 0 0 0 0 0 0 0 0 0 0 0 0 0 0 0 0 0 0 0 0 0 0 0 0 0
0 0 0 0 0 0 0 0 0 0 0 0 0 0 0 0 0 0 0 0 0 0 0 0 0 0 0 0 0 0 0 0 0 0 0 0 0 0 0 0 0 0 0 0
0 0 0 0 0 0 0 0 0 0 0 0 0 0 0 0 0 0 0 0 0 0 0 0 0 0 0 0 0 0 0 0 0 0 0 0 0 0 0 0 0 0 0 0
0 0 0 0 0 0 0 0 0 0 0 0 0 0 0 0 0 0 0 0 0 0 0 0 0 0 0 0 0 0 0 0 0 -0 -0 0 0 0 0 0 0 0 0 0
0 0 0 0 0 0 0 0 0 0 0 0 0 0 0 0 0 0 0 0 0 0 0 0 0 0 0 0 0 -0 -0 -0 -0 -0 -0 -0 0 0 0 0 0 0 0 0
Wind_Speed_500mb
36 37 36 34 33 32 31 17 7 8 24 13 16 13 13 2 12 7 5 7 7 7 3 5 5 4 9 8 11 11 14 8 11 34 35 13 14 11 11 11 26 24 24 37
31 29 32 36 37 41 27 18 11 11 36 11 16 5 10 9 12 13 10 6 5 2 6 5 7 2 13 7 10 13 16 6 13 4 15 13 7 24 34 33 28 38 30 25
23 26 30 37 42 46 33 11 5 8 21 27 16 20 19 14 6 10 5 8 6 8 7 3 2 6 8 4 8 12 7 9 15 16 27 33 39 38 36 34 23 31 40 49
22 22 24 28 39 46 19 6 9 15 11 22 23 25 20 23 12 9 15 9 16 15 8 9 8 9 14 14 12 2 5 11 20 27 36 39 41 42 39 36 35 34 44 52
18 15 18 22 30 44 11 11 6 8 2 32 27 14 16 25 16 18 16 14 15 12 9 7 3 4 5 9 16 7 9 13 23 33 37 31 35 44 41 30 29 33 42 49
12 10 12 17 26 36 11 14 6 2 10 8 17 17 17 21 28 5 12 17 9 10 13 15 14 8 15 15 10 13 12 9 14 11 25 36 19 18 30 35 32 36 39 43
10 9 11 15 29 41 12 19 7 2 3 14 18 12 20 10 20 6 7 4 9 10 6 5 6 13 18 22 25 19 10 11 10 17 23 7 20 37 21 40 38 44 45 42
11 8 9 15 23 35 23 22 10 5 3 14 9 12 15 24 23 11 14 19 17 10 5 2 4 5 7 15 24 22 24 12 6 6 17 30 26 25 38 37 51 34 46 57
11 12 13 10 11 19 18 22 26 6 4 4 15 19 24 15 15 8 19 11 4 1 7 5 5 6 5 3 5 18 15 14 10 4 13 9 18 41 52 55 40 68 76 63
10 11 12 14 10 6 15 20 23 12 12 5 7 17 19 13 21 7 19 11 4 8 7 9 8 6 4 6 8 10 13 12 19 17 15 17 24 56 56 26 35 81 73 73
8 11 13 12 12 11 13 19 20 13 11 8 8 11 10 9 6 9 26 12 8 8 10 7 4 4 6 6 11 9 5 5 8 11 16 18 58 49 28 41 67 73 85 84
4 7 11 11 16 18 19 13 14 22 12 9 19 12 18 19 16 15 30 3 17 13 7 1 4 4 3 4 6 10 3 10 8 9 13 50 41 48 53 66 71 77 85 88
0 3 6 10 17 16 19 12 11 9 14 14 7 7 9 16 13 23 15 8 6 6 8 8 5 2 6 5 10 13 14 21 12 19 9 38 47 49 62 61 65 78 82 81
5 5 4 8 12 13 17 12 12 7 11 9 5 2 4 14 24 18 17 17 14 14 8 9 5 4 5 7 13 16 22 22 15 23 35 45 38 60 58 58 64 74 77 55
7 9 9 9 11 14 16 10 7 10 7 6 12 11 7 6 13 16 9 13 11 11 7 6 3 6 6 14 12 13 16 13 8 6 21 24 41 48 42 52 66 66 64 47
15 12 10 10 11 14 10 4 6 7 13 9 6 8 11 9 13 15 14 13 10 10 9 3 6 15 6 5 7 20 27 15 17 8 16 24 31 30 35 43 52 54 41 35
9 8 6 7 10 9 8 5 1 7 12 7 8 10 7 15 17 11 13 11 9 7 6 6 8 14 12 5 7 16 18 12 14 11 23 22 18 26 38 38 39 36 32 26
6 7 7 5 6 9 8 11 16 16 7 5 4 6 8 14 8 7 10 7 7 8 7 7 10 9 12 10 28 20 9 7 10 18 18 13 19 24 24 26 26 25 33 28
6 8 8 7 3 2 5 5 3 3 1 4 5 5 5 24 9 10 9 10 7 12 12 11 14 8 14 21 26 7 1 6 14 21 11 10 13 16 19 20 22 23 26 25
12 13 3 3 0 2 2 6 3 3 3 7 8 21 7 24 16 9 13 12 6 7 14 11 7 12 40 25 13 15 7 7 14 14 8 11 13 15 17 17 17 18 20 24
5 3 2 2 2 5 2 2 2 5 5 10 11 25 13 24 14 9 18 8 7 5 9 9 8 8 21 21 22 11 4 4 8 7 4 8 7 9 10 14 17 16 18 21
9 4 5 4 2 1 3 5 8 8 5 17 12 13 11 5 10 7 6 6 6 8 20 5 6 7 28 25 23 14 7 2 8 10 10 12 13 12 13 13 16 19 22 25
6 2 2 3 7 7 9 12 7 7 12 17 17 12 10 7 6 5 7 6 8 4 6 6 8 27 29 26 23 18 12 11 13 14 15 15 15 16 16 21 21 24 27 30
6 7 8 10 10 11 12 14 6 17 17 26 26 21 9 6 13 7 8 9 6 7 8 9 10 37 35 30 27 23 20 16 16 18 19 19 19 21 24 26 28 29 30 28
11 10 10 17 25 24 15 14 6 9 35 39 24 7 7 8 7 10 8 6 8 10 9 3 34 41 38 34 29 26 25 22 21 21 21 22 23 25 27 25 24 24 25 27
12 16 14 21 24 27 24 12 11 17 33 35 15 9 8 10 7 11 13 7 11 6 12 29 27 29 33 36 32 29 27 24 23 22 24 24 25 25 26 25 24 24 28 33
14 21 37 35 23 26 23 28 25 22 35 10 13 12 13 10 8 9 9 8 3 9 25 21 21 26 36 35 31 31 30 26 24 24 24 22 24 25 25 24 26 28 30 26
Wind_Direction_500mb
210 214 210 206 202 197 179 159 192 212 170 174 202 228 234 241 169 196 165 297 304 244 141 211 286 330 55 45 344 335 37 313 290 279 281 318 20 308 287 282 299 291 297 283
187 198 205 205 192 179 154 171 151 171 166 221 214 126 144 240 176 185 169 165 312 280 209 235 268 118 83 32 349 24 3 280 308 340 113 133 257 339 319 302 298 285 285 274
175 188 193 194 189 169 164 203 138 136 206 255 279 176 194 187 269 153 198 137 185 196 200 217 173 228 139 84 46 68 351 275 278 277 298 299 298 304 300 292 282 286 275 294
154 167 179 173 176 167 142 153 198 179 189 227 239 177 192 183 173 192 189 183 216 200 206 221 214 253 136 198 166 250 253 275 298 293 295 298 293 291 294 293 292 289 300 295
137 155 159 165 171 179 163 173 189 198 299 207 214 188 206 193 173 166 195 238 194 223 226 242 23 313 228 262 152 250 259 286 308 294 286 287 315 300 289 286 306 305 307 301
127 126 146 162 172 176 194 224 231 352 128 214 198 194 218 215 143 15 346 201 177 198 41 55 39 354 317 298 276 287 291 300 324 279 332 317 285 10 329 313 321 316 306 318
94 114 140 164 175 174 175 182 156 127 216 209 202 211 209 209 154 115 150 266 197 86 64 4 288 258 256 255 251 241 254 278 289 297 325 258 342 325 338 326 326 328 319 343
83 73 120 146 177 193 183 167 152 186 201 208 85 164 146 96 101 113 126 62 80 112 95 244 346 221 247 239 224 218 220 250 284 287 306 292 281 23 346 342 318 331 347 332
77 72 84 116 157 185 177 174 156 116 110 64 168 171 160 137 143 133 111 85 69 107 209 97 203 201 225 193 217 172 199 200 243 281 298 293 324 326 341 329 300 359 340 330
86 81 78 83 101 133 148 149 145 118 108 108 170 159 182 164 175 129 137 150 185 223 180 213 206 237 149 241 209 185 190 218 233 242 247 265 275 354 342 318 325 332 336 330
102 82 74 82 84 94 119 135 153 122 112 109 60 101 165 147 229 158 128 142 220 195 214 206 248 268 192 249 271 266 249 273 278 279 283 280 353 351 354 321 331 333 328 324
93 68 75 89 95 94 84 89 132 131 126 141 149 158 139 115 73 86 159 124 155 176 236 235 342 144 309 322 259 125 277 227 264 276 274 315 334 349 342 337 333 330 324 319
199 86 74 99 102 110 108 79 87 118 121 105 95 111 221 181 149 129 171 188 109 165 29 84 49 212 316 246 246 298 295 308 303 307 288 307 337 337 336 334 334 325 323 324
196 153 136 117 111 114 102 72 92 117 111 110 135 218 103 205 197 137 103 119 118 109 104 78 125 227 256 259 302 306 273 306 268 277 288 336 325 328 334 331 332 334 333 335
149 152 143 130 122 112 93 97 60 125 88 130 129 123 107 135 168 163 150 126 157 140 84 74 203 225 255 246 266 255 223 232 272 308 345 319 311 325 333 336 336 337 341 337
139 144 138 133 125 119 90 69 40 165 112 125 143 123 159 136 146 165 166 168 157 122 123 182 250 245 254 261 251 253 259 283 50 27 329 319 315 327 336 339 346 350 352 354
116 117 120 127 128 86 83 38 6 118 96 91 112 140 128 159 155 121 129 137 129 113 146 230 251 245 212 247 244 255 290 329 33 49 348 333 346 325 338 351 356 354 17 26
115 107 94 99 121 100 85 84 92 88 81 97 126 126 148 173 127 114 172 129 168 205 214 213 223 233 217 254 242 264 165 65 73 354 353 324 306 323 343 358 0 19 30 39
149 135 111 98 108 139 115 130 221 275 282 114 182 184 168 172 140 121 137 151 178 198 212 220 208 210 224 239 239 161 254 347 324 333 7 355 353 352 1 13 25 42 51 60
148 123 97 111 67 200 163 38 347 348 196 225 242 214 144 171 158 136 157 188 232 201 214 191 216 246 246 238 161 187 208 300 321 345 14 14 11 15 27 31 46 63 75 84
106 126 125 241 130 148 142 104 234 175 248 214 224 234 156 184 170 156 201 179 205 247 158 213 218 247 235 168 164 169 181 325 349 27 36 85 47 49 64 65 71 87 105 108
192 162 128 224 190 157 224 213 180 218 258 165 179 203 171 182 179 128 193 204 179 255 155 235 250 226 138 136 140 156 155 107 63 81 87 99 91 99 106 100 98 100 105 113
154 149 144 207 187 235 218 193 191 208 193 166 162 146 140 145 178 150 173 215 229 185 218 234 252 150 150 156 156 154 147 114 100 96 87 94 108 110 107 108 108 115 119 125
200 179 218 220 203 235 210 237 190 204 143 150 163 152 155 153 182 196 216 224 205 227 232 226 203 158 154 171 178 161 150 137 122 109 110 109 110 114 116 114 119 125 128 131
216 203 227 223 225 231 244 237 204 154 148 146 164 132 158 167 188 207 222 210 238 226 235 193 116 145 164 174 168 164 159 148 134 127 128 128 128 126 126 131 136 135 135 140
224 224 235 256 237 232 239 256 239 173 156 155 196 175 193 202 213 193 207 216 218 225 176 130 141 151 168 166 171 168 162 155 147 146 143 141 141 140 139 141 142 141 140 137
214 224 227 246 267 237 240 225 229 209 170 184 196 210 208 180 202 209 204 216 330 109 124 142 158 177 171 170 171 167 162 160 157 156 158 149 150 154 149 147 146 152 156 155
Wind_Speed_850mb
36 37 36 34 33 32 31 17 7 8 24 13 16 13 13 2 12 7 5 7 7 7 3 5 5 4 9 8 11 11 14 8 11 34 35 13 14 11 11 11 26 24 24 37
31 29 32 36 37 41 27 18 11 11 36 11 16 5 10 9 12 13 10 6 5 2 6 5 7 2 13 7 10 13 16 6 13 4 15 13 7 24 34 33 28 38 30 25
23 26 30 37 42 46 33 11 5 8 21 27 16 20 19 14 6 10 5 8 6 8 7 3 2 6 8 4 8 12 7 9 15 16 27 33 39 38 36 34 23 31 40 49
22 22 24 28 39 46 19 6 9 15 11 22 23 25 20 23 12 9 15 9 16 15 8 9 8 9 14 14 12 2 5 11 20 27 36 39 41 42 39 36 35 34 44 52
18 15 18 22 30 44 11 11 6 8 2 32 27 14 16 25 16 18 16 14 15 12 9 7 3 4 5 9 16 7 9 13 23 33 37 31 35 44 41 30 29 33 42 49
12 10 12 17 26 36 11 14 6 2 10 8 17 17 17 21 28 5 12 17 9 10 13 15 14 8 15 15 10 13 12 9 14 11 25 36 19 18 30 35 32 36 39 43
10 9 11 15 29 41 12 19 7 2 3 14 18 12 20 10 20 6 7 4 9 10 6 5 6 13 18 22 25 19 10 11 10 17 23 7 20 37 21 40 38 44 45 42
11 8 9 15 23 35 23 22 10 5 3 14 9 12 15 24 23 11 14 19 17 10 5 2 4 5 7 15 24 22 24 12 6 6 17 30 26 25 38 37 51 34 46 57
11 12 13 10 11 19 18 22 26 6 4 4 15 19 24 15 15 8 19 11 4 1 7 5 5 6 5 3 5 18 15 14 10 4 13 9 18 41 52 55 40 68 76 63
10 11 12 14 10 6 15 20 23 12 12 5 7 17 19 13 21 7 19 11 4 8 7 9 8 6 4 6 8 10 13 12 19 17 15 17 24 56 56 26 35 81 73 73
8 11 13 12 12 11 13 19 20 13 11 8 8 11 10 9 6 9 26 12 8 8 10 7 4 4 6 6 11 9 5 5 8 11 16 18 58 49 28 41 67 73 85 84
4 7 11 11 16 18 19 13 14 22 12 9 19 12 18 19 16 15 30 3 17 13 7 1 4 4 3 4 6 10 3 10 8 9 13 50 41 48 53 66 71 77 85 88
0 3 6 10 17 16 19 12 11 9 14 14 7 7 9 16 13 23 15 8 6 6 8 8 5 2 6 5 10 13 14 21 12 19 9 38 47 49 62 61 65 78 82 81
5 5 4 8 12 13 17 12 12 7 11 9 5 2 4 14 24 18 17 17 14 14 8 9 5 4 5 7 13 16 22 22 15 23 35 45 38 60 58 58 64 74 77 55
7 9 9 9 11 14 16 10 7 10 7 6 12 11 7 6 13 16 9 13 11 11 7 6 3 6 6 14 12 13 16 13 8 6 21 24 41 48 42 52 66 66 64 47
15 12 10 10 11 14 10 4 6 7 13 9 6 8 11 9 13 15 14 13 10 10 9 3 6 15 6 5 7 20 27 15 17 8 16 24 31 30 35 43 52 54 41 35
9 8 6 7 10 9 8 5 1 7 12 7 8 10 7 15 17 11 13 11 9 7 6 6 8 14 12 5 7 16 18 12 14 11 23 22 18 26 38 38 39 36 32 26
6 7 7 5 6 9 8 11 16 16 7 5 4 6 8 14 8 7 10 7 7 8 7 7 10 9 12 10 28 20 9 7 10 18 18 13 19 24 24 26 26 25 33 28
6 8 8 7 3 2 5 5 3 3 1 4 5 5 5 24 9 10 9 10 7 12 12 11 14 8 14 21 26 7 1 6 14 21 11 10 13 16 19 20 22 23 26 25
12 13 3 3 0 2 2 6 3 3 3 7 8 21 7 24 16 9 13 12 6 7 14 11 7 12 40 25 13 15 7 7 14 14 8 11 13 15 17 17 17 18 20 24
5 3 2 2 2 5 2 2 2 5 5 10 11 25 13 24 14 9 18 8 7 5 9 9 8 8 21 21 22 11 4 4 8 7 4 8 7 9 10 14 17 16 18 21
9 4 5 4 2 1 3 5 8 8 5 17 12 13 11 5 10 7 6 6 6 8 20 5 6 7 28 25 23 14 7 2 8 10 10 12 13 12 13 13 16 19 22 25
6 2 2 3 7 7 9 12 7 7 12 17 17 12 10 7 6 5 7 6 8 4 6 6 8 27 29 26 23 18 12 11 13 14 15 15 15 16 16 21 21 24 27 30
6 7 8 10 10 11 12 14 6 17 17 26 26 21 9 6 13 7 8 9 6 7 8 9 10 37 35 30 27 23 20 16 16 18 19 19 19 21 24 26 28 29 30 28
11 10 10 17 25 24 15 14 6 9 35 39 24 7 7 8 7 10 8 6 8 10 9 3 34 41 38 34 29 26 25 22 21 21 21 22 23 25 27 25 24 24 25 27
12 16 14 21 24 27 24 12 11 17 33 35 15 9 8 10 7 11 13 7 11 6 12 29 27 29 33 36 32 29 27 24 23 22 24 24 25 25 26 25 24 24 28 33
14 21 37 35 23 26 23 28 25 22 35 10 13 12 13 10 8 9 9 8 3 9 25 21 21 26 36 35 31 31 30 26 24 24 24 22 24 25 25 24 26 28 30 26
Wind_Direction_850mb
210 214 210 206 202 197 179 159 192 212 170 174 202 228 234 241 169 196 165 297 304 244 141 211 286 330 55 45 344 335 37 313 290 279 281 318 20 308 287 282 299 291 297 283
187 198 205 205 192 179 154 171 151 171 166 221 214 126 144 240 176 185 169 165 312 280 209 235 268 118 83 32 349 24 3 280 308 340 113 133 257 339 319 302 298 285 285 274
175 188 193 194 189 169 164 203 138 136 206 255 279 176 194 187 269 153 198 137 185 196 200 217 173 228 139 84 46 68 351 275 278 277 298 299 298 304 300 292 282 286 275 294
154 167 179 173 176 167 142 153 198 179 189 227 239 177 192 183 173 192 189 183 216 200 206 221 214 253 136 198 166 250 253 275 298 293 295 298 293 291 294 293 292 289 300 295
137 155 159 165 171 179 163 173 189 198 299 207 214 188 206 193 173 166 195 238 194 223 226 242 23 313 228 262 152 250 259 286 308 294 286 287 315 300 289 286 306 305 307 301
127 126 146 162 172 176 194 224 231 352 128 214 198 194 218 215 143 15 346 201 177 198 41 55 39 354 317 298 276 287 291 300 324 279 332 317 285 10 329 313 321 316 306 318
94 114 140 164 175 174 175 182 156 127 216 209 202 211 209 209 154 115 150 266 197 86 64 4 288 258 256 255 251 241 254 278 289 297 325 258 342 325 338 326 326 328 319 343
83 73 120 146 177 193 183 167 152 186 201 208 85 164 146 96 101 113 126 62 80 112 95 244 346 221 247 239 224 218 220 250 284 287 306 292 281 23 346 342 318 331 347 332
77 72 84 116 157 185 177 174 156 116 110 64 168 171 160 137 143 133 111 85 69 107 209 97 203 201 225 193 217 172 199 200 243 281 298 293 324 326 341 329 300 359 340 330
86 81 78 83 101 133 148 149 145 118 108 108 170 159 182 164 175 129 137 150 185 223 180 213 206 237 149 241 209 185 190 218 233 242 247 265 275 354 342 318 325 332 336 330
102 82 74 82 84 94 119 135 153 122 112 109 60 101 165 147 229 158 128 142 220 195 214 206 248 268 192 249 271 266 249 273 278 279 283 280 353 351 354 321 331 333 328 324
93 68 75 89 95 94 84 89 132 131 126 141 149 158 139 115 73 86 159 124 155 176 236 235 342 144 309 322 259 125 277 227 264 276 274 315 334 349 342 337 333 330 324 319
199 86 74 99 102 110 108 79 87 118 121 105 95 111 221 181 149 129 171 188 109 165 29 84 49 212 316 246 246 298 295 308 303 307 288 307 337 337 336 334 334 325 323 324
196 153 136 117 111 114 102 72 92 117 111 110 135 218 103 205 197 137 103 119 118 109 104 78 125 227 256 259 302 306 273 306 268 277 288 336 325 328 334 331 332 334 333 335
149 152 143 130 122 112 93 97 60 125 88 130 129 123 107 135 168 163 150 126 157 140 84 74 203 225 255 246 266 255 223 232 272 308 345 319 311 325 333 336 336 337 341 337
139 144 138 133 125 119 90 69 40 165 112 125 143 123 159 136 146 165 166 168 157 122 123 182 250 245 254 261 251 253 259 283 50 27 329 319 315 327 336 339 346 350 352 354
116 117 120 127 128 86 83 38 6 118 96 91 112 140 128 159 155 121 129 137 129 113 146 230 251 245 212 247 244 255 290 329 33 49 348 333 346 325 338 351 356 354 17 26
115 107 94 99 121 100 85 84 92 88 81 97 126 126 148 173 127 114 172 129 168 205 214 213 223 233 217 254 242 264 165 65 73 354 353 324 306 323 343 358 0 19 30 39
149 135 111 98 108 139 115 130 221 275 282 114 182 184 168 172 140 121 137 151 178 198 212 220 208 210 224 239 239 161 254 347 324 333 7 355 353 352 1 13 25 42 51 60
148 123 97 111 67 200 163 38 347 348 196 225 242 214 144 171 158 136 157 188 232 201 214 191 216 246 246 238 161 187 208 300 321 345 14 14 11 15 27 31 46 63 75 84
106 126 125 241 130 148 142 104 234 175 248 214 224 234 156 184 170 156 201 179 205 247 158 213 218 247 235 168 164 169 181 325 349 27 36 85 47 49 64 65 71 87 105 108
192 162 128 224 190 157 224 213 180 218 258 165 179 203 171 182 179 128 193 204 179 255 155 235 250 226 138 136 140 156 155 107 63 81 87 99 91 99 106 100 98 100 105 113
154 149 144 207 187 235 218 193 191 208 193 166 162 146 140 145 178 150 173 215 229 185 218 234 252 150 150 156 156 154 147 114 100 96 87 94 108 110 107 108 108 115 119 125
200 179 218 220 203 235 210 237 190 204 143 150 163 152 155 153 182 196 216 224 205 227 232 226 203 158 154 171 178 161 150 137 122 109 110 109 110 114 116 114 119 125 128 131
216 203 227 223 225 231 244 237 204 154 148 146 164 132 158 167 188 207 222 210 238 226 235 193 116 145 164 174 168 164 159 148 134 127 128 128 128 126 126 131 136 135 135 140
224 224 235 256 237 232 239 256 239 173 156 155 196 175 193 202 213 193 207 216 218 225 176 130 141 151 168 166 171 168 162 155 147 146 143 141 141 140 139 141 142 141 140 137
214 224 227 246 267 237 240 225 229 209 170 184 196 210 208 180 202 209 204 216 330 109 124 142 158 177 171 170 171 167 162 160 157 156 158 149 150 154 149 147 146 152 156 155